Weather in Dhidhdhoo

Maldives     6°53′15″N   73°06′52″E
temp.,
°C
wind,
m/s
gust,
m/s
humid.,
%
clouds,
%
prec.,
mm/h
press.,
hPa
HPBL,
m
14 may, fri
fri1423:00+29sw152078100 5.2 10071662
02:00+29wsw152280100 3.3 10041586
05:00+29wsw152281100 3.8 10031606
08:00+29sw162281100 2.9 10061729
11:00+29wsw152380100 4.1 10061680
14:00+29wsw162380100 0.6 10041918
17:00+28wsw182585100 2.6 10031941
20:00+29wsw172583100 1.3 10052005
15 may, sat
sat1523:00+29wsw182484100 3.4 10061829
02:00+28wsw172585100 5.2 10031859
05:00+29wsw172479100 5.9 10021701
08:00+29w15237990 0.3 10061765
11:00+29wsw142178100 0.9 10061827
14:00+29wsw152074100 0.7 10041645
17:00+29wsw141875100 3.4 10041633
20:00+29wsw14177482 1.6 10071501
16 may, sun
sun1623:00+29wsw141875100 2.5 10071558
02:00+29wsw141977100 1.1 10041616
05:00+29wsw131876100 1.6 10041526
08:00+29wsw13177574 0.4 10071496
11:00+30wsw121574100 0.8 10071368
14:00+30wsw12147491 1.4 10051358
17:00+29wsw111375100 3.6 10051212
20:00+29wsw11137799 1.3 10071154
17 may, mon
mon1723:00+29wsw111377100 2.6 10071184
02:00+29wsw111378100 1.5 10051087
05:00+29w91079100 4.4 10061003
08:00+29wsw101278100 1.8 10081070
11:00+29wsw91176100 2.3 10081118
14:00+28w111384100 2.3 1006986
17:00+27w111387100 7.5 10061023
20:00+29w121374100 0.9 10071233
18 may, tue
tue1823:00+29w111377100 1.1 10081133
02:00+28w121482100 1.9 10061017
05:00+27wsw111385100 6.5 1006931
08:00+28w111386100 1.8 1008873
11:00+28w101282100 4.4 1008918
14:00+29wnw101272100 0.4 10061051
17:00+29wnw8972100 0.8 10061129
20:00+29wnw7869100 1.2 10081201